This is the latest recevied weather packets stored in our database for station/object W0PE-1. If no packets are shown the sender has not sent any weather packets the latest 10 day(s).
| Time | Temp. | Humidity | Pressure | Rain* | Wind** | Luminosity | Snow |
|---|---|---|---|---|---|---|---|
| 1777589143 | 22.78° C | 59% | 1009.9 hPa | 0 mm | - | - | - |
| 1777588239 | 22.78° C | 58% | 1009.9 hPa | 0 mm | - | - | - |
| 1777587353 | 23.33° C | 56% | 1010.1 hPa | 0 mm | - | - | - |
| 1777586436 | 23.33° C | 56% | 1010.1 hPa | 0 mm | - | - | - |
| 1777585535 | 23.33° C | 55% | 1010.3 hPa | 0 mm | - | - | - |
| 1777584642 | 23.89° C | 56% | 1010.3 hPa | 0 mm | - | - | - |
| 1777583737 | 23.89° C | 56% | 1010.4 hPa | 0 mm | - | - | - |
| 1777582832 | 23.89° C | 56% | 1010.3 hPa | 0 mm | - | - | - |
| 1777581932 | 23.89° C | 55% | 1010.4 hPa | 0 mm | - | - | - |
| 1777581030 | 23.89° C | 56% | 1010.4 hPa | 0 mm | - | - | - |
| 1777580130 | 23.89° C | 55% | 1010.4 hPa | 0 mm | - | - | - |
| 1777579228 | 23.89° C | 53% | 1010.5 hPa | 0 mm | - | - | - |
| 1777578325 | 23.33° C | 55% | 1010.6 hPa | 0 mm | - | - | - |
| 1777577423 | 23.33° C | 55% | 1010.7 hPa | 0 mm | - | - | - |
| 1777576520 | 22.22° C | 58% | 1011.1 hPa | 0 mm | - | - | - |
| 1777575617 | 22.22° C | 58% | 1011.2 hPa | 0 mm | - | - | - |
| 1777574714 | 22.22° C | 58% | 1011.4 hPa | 0 mm | - | - | - |
| 1777573825 | 21.67° C | 59% | 1011.6 hPa | 0 mm | - | - | - |
| 1777572910 | 21.11° C | 60% | 1011.8 hPa | 0 mm | - | - | - |
| 1777572007 | 20° C | 60% | 1011.9 hPa | 0 mm | - | - | - |
| 1777571105 | 20.56° C | 62% | 1012.1 hPa | 0 mm | - | - | - |
| 1777570203 | 20° C | 65% | 1012 hPa | 0 mm | - | - | - |
| 1777569362 | 19.44° C | 66% | 1012.1 hPa | 0 mm | - | - | - |
| 1777568457 | 19.44° C | 69% | 1012.2 hPa | 0 mm | - | - | - |
| 1777567556 | 19.44° C | 70% | 1012.3 hPa | 0 mm | - | - | - |
* Rain latest hour (hover to see other rain measurements)
** Current wind speed in m/s (hover to see current wind gust speed)